Location: Stuart
(27.1975°N, 80.2528°W)
Time: 08:32:37
(UTC-04:00)

ISS - Pass Details

Date: 10 April 2020
Orbit: 417 x 419 km, 51.6° (Epoch: 03 June)

Event Time Altitude Azimuth Distance (km) Brightness Sun altitude
Rises 20:30:30 0° 302° (WNW) 2,355 1.7 -11.1°
Reaches altitude 10° 20:32:53 10° 286° (WNW) 1,488 0.6 -11.6°
Maximum altitude 20:35:33 22° 233° (SW) 958 -1.5 -12.1°
Drops below altitude 10° 20:38:12 10° 180° (S) 1,481 -1.1 -12.7°
Enters shadow 20:39:35 - 169° (S) 1,966 -0.6 -13.0°
